Station PILM4 - Passage Island, MI Image indicating link to RSS feed of recent meteorological observations for station PILM4


Conditions at PILM4 as of
(10:00 am EDT)
1400 GMT on 07/22/2024:
     

Click on the graph icon in the table below to see a time series plot of the last five days of that observation.

5-day plot - Wind Direction Wind Direction (WDIR): S ( 190 deg true )
5-day plot - Wind Speed Wind Speed (WSPD): 9 kts
5-day plot - Wind Gust Wind Gust (GST): 11 kts
5-day plot - Atmospheric Pressure Atmospheric Pressure (PRES):30.06 in
5-day plot - Pressure Tendency Pressure Tendency (PTDY):-0.01 in ( Falling )
5-day plot - Air Temperature Air Temperature (ATMP): 61.3 °F
5-day plot - Wind Speed at 10 Meters Wind Speed at 10 meters (WSPD10M): 10 kts
5-day plot - Wind Speed at 20 Meters Wind Speed at 20 meters (WSPD20M): 10 kts
5-day plot -  Wind Speed, Wind Gust and Atmospheric Pressure Combined plot of Wind Speed, Gust, and Air Pressure
Continuous Winds
TIME
(EDT)
5-day plot - Wind Direction WDIR 5-day plot - Wind Speed WSPD
10:00 amSSW ( 193 deg ) 10 kts
9:50 amSSW ( 192 deg ) 9 kts
9:40 amSSW ( 192 deg ) 9 kts
9:30 amSSW ( 194 deg ) 8 kts
9:20 amSSW ( 194 deg ) 8 kts
9:10 amSSW ( 195 deg ) 8 kts
 
Peak gust during the measurement hour
TIME
(EDT)
5-day plot - Gust Direction GDR 5-day plot - Gust Speed GST
9:59 amS ( 190 deg ) 11 kts
Previous observations
TIME
(EDT)
5-day plot - Wind Direction
WDIR
 
5-day plot - Wind Speed
WSPD
kts
5-day plot - Wind Gust
GST
kts
5-day plot - Wave Height
WVHT
ft
5-day plot - Dominant Wave Period
DPD
sec
5-day plot - Average Wave Period
APD
sec
5-day plot - Mean Wave Direction
MWD
 
5-day plot - Atmospheric Pressure
PRES
in
5-day plot - Pressure Tendency
PTDY
in
5-day plot - Air Temperature
ATMP
°F
5-day plot - Water Temperature
WTMP
°F
5-day plot - Dew Point
DEWP
°F
5-day plot - Salinity
SAL
psu
5-day plot - Visibility
VIS
nmi
5-day plot - Tide (above MLLW)
TIDE
ft
2024-07-22 09:00 amSSW 8 9----30.07+0.00 61.2-----
2024-07-22 08:00 amSSW 8 8----30.06-0.01 62.1-----
2024-07-22 07:00 am SW 7 7----30.07-0.02 62.2-----
2024-07-22 06:00 am SW 7 7----30.07-0.04 62.1-----
2024-07-22 05:00 amWSW 6 7----30.08-0.05 62.6-----
2024-07-22 04:00 am W 7 8----30.09-0.05 63.0-----
2024-07-22 03:00 amWSW 7 8----30.11-0.04 62.6-----
2024-07-22 02:00 amWSW 11 12----30.13-0.01 64.4-----
2024-07-22 01:00 am W 9 10----30.14-0.01 63.9-----
2024-07-22 12:00 am W 9 10----30.14-0.01 64.2-----
2024-07-21 11:00 pmWSW 9 9----30.15-0.01 64.9-----
2024-07-21 10:00 pm SW 9 10----30.15-0.01 64.0-----
2024-07-21 09:00 pm SW 11 11----30.15-0.04 64.9-----
2024-07-21 08:00 pmSSW 9 10----30.16-0.05 64.9-----
2024-07-21 07:00 pm SW 9 9----30.16-0.06 65.7-----
2024-07-21 06:00 pmSSW 8 9----30.19-0.05 65.5-----
2024-07-21 05:00 pmSSW 7 8----30.21-0.04 65.1-----
2024-07-21 04:00 pm S 8 9----30.23-0.03 64.6-----
2024-07-21 03:00 pm S 6 6----30.24-0.01 63.9-----
2024-07-21 02:00 pmSSE 4 4----30.25+0.00 62.4-----
2024-07-21 01:00 pm SE 4 4----30.26+0.00 60.8-----
2024-07-21 12:00 pm E 4 4----30.26+0.00 60.6-----
2024-07-21 11:00 amENE 5 5----30.25+0.01 61.3-----
2024-07-21 10:00 amENE 5 6----30.26+0.02 61.7-----